CZ-4B R/B, 44531

Orbit data source: Space-Track

CZ-4B R/B, 44531 is space debris in SSO originally from a launch on Thu, 12 Sep 2019 UTC launched from the Taiyaun Space Center, China (TSC). Debris objects in space refer to the collection of defunct objects orbiting the Earth. Examples of debris include non-operational satellites, rocket bodies, and fragments generated from explosions, collisions, or faulty payload assembly.

Loading next visibility...
Identifier
44531, 2019-059D
Orbit
SSO
Country
Flag of CNCN / PRC
Related business
Manufacturer
SAST
Mission
Spacecraft
Bus & Motor
CZ-4 STAGE 3, Unknown motor
Mass
~1,000 kg wet, ~1,000 kg dry
Launch date (UTC)
2019-09-12 (7 years ago)
Launch vehicle
Unknown
Launch site
Taiyaun Space Center, China (TSC)
Object type
Payload
Rocket body
Debris
Shape & HBR
Cyl, 2.5 m
Radar Cross Section
14.536 m², Large (>1 m²)

Expand to show TLE details & history
Last TLE update: 16 hours ago

TLE from 16 hours ago
0 CZ-4B R/B
1 44531U 19059D   26094.93734549  .00008723  00000-0  38823-3 0  9993
2 44531  98.7176 116.6652 0137006 122.9157 238.5337 15.13643200358651
Epoch: 2026-04-04T22:29Z
TLE epoch observation values (Epoch: 2026-04-04T22:29:46.650Z)
Latitude
-0°
Longitude
-54.02913°
Altitude
578.456 km
Speed
7.544 km/s
True Right ascension
07h 46m 39s
True Declination
0° 00' 00"
Sunlit
Object was in daylight at epoch
Visualization orbit readout
Latitude
Unknown
Longitude
Unknown
Altitude
Unknown
Speed
Unknown
Apparent Right ascension
Unknown
Apparent Declination
Unknown
Sunlit
N/A
Visualization observer readout
Local Sidereal Time
20:32:00
Azimuth
Unknown
Elevation
Unknown
Doppler factor
Unknown
Orbital elements
Apogee altitude
616.673 km
Perigee altitude
427.597 km
Semi-major axis
6,900.272 km
Eccentricity
0.0137
Inclination
98.7176°
RAAN
116.6652°
Arg. of periapsis
122.9157°
True anomaly
237.20658°
Mean anomaly
238.5337°
Eccentric anomaly
237.86895°
Mean motion
3.78655 °/min
Orbital period
95.07 mins
BSTAR
0.00038823
Loading maneuver chart data...
Computing Atmospheric mass density...
Loading historical data...
Loading historical data...
Loading historical data...
Loading historical data...
Loading historical data...
Loading historical data...
Loading historical data...
Other satellites on launch #59 in the year 2019 (2019-09-12 UTC)

Documentation

Showing up to 5 results
|